Regional Weather Roundup
Issued by NWS

Home | Current Version | Previous Version | Text Only | Print | Product List | Glossary On
Versions: 1 2 3 4 5 6 7 8 9 10 11 12 13 14 15 16 17 18 19 20 21 22 23 24 25 26 27 28 29 30 31 32 33 34 35 36 37 38 39 40 41 42 43 44 45 46 47 48 49 50
000
ASUS46 KSTO 310615
RWRCA

NORTHERN AND CENTRAL CA REGIONAL WEATHER ROUNDUP
NATIONAL WEATHER SERVICE SACRAMENTO CA
1100 PM PDT FRI JUL 30 2021

NOTE: FAIR INDICATES FEW OR NO CLOUDS BELOW 12,000 FEET WITH NO
SIGNIFICANT WEATHER AND/OR OBSTRUCTIONS TO VISIBILITY.

CAZ001-003-310700-
NORTHWEST AREA

CITY           SKY/WX    TMP DP  RH WIND       PRES   REMARKS
CRESCENT CITY  FOG       53  52  96 S8        29.98S VSB 1
UKIAH          CLEAR     76  47  35 CALM      29.92R
$$

CAZ006-505>513-310700-
BAY AREA

CITY           SKY/WX    TMP DP  RH WIND       PRES   REMARKS
SANTA ROSA     CLOUDY    54  52  93 S6        29.97S
SAN RAFAEL     N/A       60  MM  MM MISG
NAPA           LGT RAIN  60  57  89 S15       29.95S
CONCORD        MOCLDY    71  50  47 S12       29.92S
OAKLAND CITY   N/A       60  MM  MM MISG
OAKLAND        MOCLDY    60  56  86 N8        29.98S
SAN FRAN CITY  N/A       58  MM  95 MISG
SAN FRAN ARPT  PTCLDY    61  55  81 W6        29.96S
LIVERMORE      MOCLDY    67  53  61 W9        29.94S
HAYWARD        PTCLDY    60  55  83 NW6       29.97S
REDWOOD CITY   N/A       64  MM  78 MISG
MOFFETT ARPT   PTCLDY    63  57  82 NW3       29.97F
SAN JOSE ARPT  PTCLDY    64  55  72 NW3       29.97S
$$
CAZ034-037-514>518-310700-
CENTRAL COAST

CITY           SKY/WX    TMP DP  RH WIND       PRES   REMARKS
WATSONVILLE    CLOUDY    59  56  89 CALM      30.01F
SALINAS        CLOUDY    60  57  89 NW7       30.01S
MONTEREY       CLOUDY    63  57  81 VRB3      30.01S
SAN LUIS OBISP CLOUDY    62  57  83 NW3       30.00F
SANTA MARIA    CLOUDY    59  56  89 NW5       30.01F
$$
CAZ015-016-310700-
NORTHERN SACRAMENTO VALLEY

CITY           SKY/WX    TMP DP  RH WIND       PRES   REMARKS
REDDING        MOCLDY    93  55  27 CALM      29.84R HX  91
RED BLUFF      MOCLDY    89  61  38 NW3       29.83S
OROVILLE       MOCLDY    92  53  26 SE9       29.83S
$$
CAZ016>018-310700-
SOUTHERN SACRAMENTO VALLEY

CITY           SKY/WX    TMP DP  RH WIND       PRES   REMARKS
AUBURN         CLEAR     86  46  25 SE8       29.95S
BEALE AFB      MOCLDY    88  51  28 SE10      29.83R
LINCOLN        FAIR      86  48  26 S10       29.85R
MARYSVILLE     MOCLDY    84  54  35 SE13      29.83R
SAC INTL ARPT  MOCLDY    73  52  47 SE12      29.84R
MATHER AIRPORT CLEAR     73  50  43 SE7       29.86S
DOWNTOWN SAC   N/A       74  MM  MM MISG
SAC EXEC ARPT  PTCLDY    69  53  56 S5        29.86R
VACAVILLE      MOCLDY    79  48  33 S5        29.85R
TRAVIS AFB     MOCLDY    63  53  71 SW26G33   29.86S
$$
CAZ019>021-310700-
SAN JOAQUIN VALLEY

CITY           SKY/WX    TMP DP  RH WIND       PRES   REMARKS
STOCKTON       PTCLDY    77  48  35 W12       29.87R
MODESTO        PTCLDY    82  44  26 N8        29.86R
MERCED         PTCLDY    86  55  34 NW8       29.86R
LEMOORE        MOCLDY    87  56  34 W6        29.86R
FRESNO         PTCLDY    92  59  33 W16       29.85R HX  91
HANFORD        PTCLDY    91  64  40 W6        29.86R HX  92
PORTERVILLE    PTCLDY    85  54  34 SE9       29.90R
BAKERSFIELD    PTCLDY    91  47  21 NE5       29.89R
$$
CAZ011-012-071-310700-
NORTHERN MOUNTAINS

CITY           SKY/WX    TMP DP  RH WIND       PRES   REMARKS
YREKA          PTCLDY    75  56  51 S5        30.08R
MOUNT SHASTA   PTCLDY    75  51  43 CALM      30.11R
ALTURAS        MOCLDY    74  45  35 W3        30.14S
$$
CAZ011-012-071-310700-
SIERRA NEVADA MTNS

CITY           SKY/WX    TMP DP  RH WIND       PRES   REMARKS
BLUE CANYON    CLOUDY    72  46  39 CALM      30.25R
TRUCKEE        CLOUDY    63  50  63 CALM      30.28F
TAHOE VLY ARPT CLOUDY    61  54  77 CALM      30.30S
$$



USA.gov is the U.S. government's official web portal to all federal, state and local government web resources and services.